Regional Weather Roundup
Issued by NWS New Orleans/Baton Rouge, LA

Home | Current Version | Previous Version | Graphics & Text | Print | Product List | Glossary On
Versions: 1 2 3 4 5 6 7 8 9 10 11 12 13 14 15 16 17 18 19 20 21 22 23 24 25 26 27 28 29 30 31 32 33 34 35 36 37 38 39 40 41 42 43 44 45 46 47 48 49 50
103
ASUS44 KLIX 180910
RWRLIX
NEW ORLEANS REGIONAL WEATHER ROUNDUP
NATIONAL WEATHER SERVICE NEW ORLEANS LA
400 AM CDT THU SEP 18 2014

NOTE: "FAIR" INDICATES FEW OR NO CLOUDS BELOW 12,000 FEET WITH NO
      SIGNIFICANT WEATHER AND/OR OBSTRUCTIONS TO VISIBILITY.
      SKY/WX - SKY CONDITION AND SIGNIFICANT WEATHER.
      TMP - AIR TEMPERATURE.     DP    - DEWPOINT TEMPERATURE.
      RH  - RELATIVE HUMIDITY.   PRES  - PRESSURE.
      HI  - HEAT INDEX.          WCI   - WIND CHILL INDEX.

*  THESE STATIONS ARE NOT NWS OR FAA STATIONS AND ARE NOT UNDER
   NWS QUALITY CONTROL.

LAZ038-040-048-061>063-065>067-069-181000-
SOUTHEAST LOUISIANA

CITY           SKY/WX    TMP DP  RH WIND       PRES   REMARKS
N.O. AUDUBON     N/A     76  73  91 MISG        N/A
N.O. INTL ARPT PTCLDY    76  73  91 CALM      29.89S
N.O. LAKEFRONT PTCLDY    80  75  84 NW5       29.89F
N.O. DOWNTOWN*   N/A     79  70  73 CALM      29.89S
SLIDELL        PTCLDY    72  70  93 N3        29.89S
BATON ROUGE    MOCLDY    73  72  96 CALM      29.89S
BOOTHVILLE     PTCLDY    79  76  90 CALM      29.89F
BELLE CHASSE   PTCLDY    73  69  87 CALM      29.89S
BOGALUSA*      FOG       73  70  90 CALM      29.91S VSB 3/4
GALLIANO*      NOT AVBL
NEW ROADS*     FOG       71  70  98 CALM      29.90R VSB<1/4
GONZALES*        N/A     73  73 100 CALM      29.89S FOG
HAMMOND*       PTCLDY    73  70  88 CALM      29.91R
HOUMA*         FOG      N/A N/A N/A CALM      29.89S VSB 1/2
PORT FOURCHON* SUNNY     79  75  89 N3        29.92R

$$

MSZ070-080>082-181000-
SOUTHERN MISSISSIPPI

CITY           SKY/WX    TMP DP  RH WIND       PRES   REMARKS
MCCOMB         MOCLDY    73  70  90 CALM      29.91F FOG
GULFPORT       CLEAR     74  72  93 CALM      29.88F
BILOXI         PTCLDY    76  73  91 N1        29.89F
PASCAGOULA     MOCLDY    71  71 100 CALM      29.89F FOG

$$

COASTAL OBSERVATIONS
LAKE AND NEARSHORE STATIONS

STATION/POSITION TIME  TEMP    WIND        PRES    WAVE
                       AIR SEA DIR/SP/G            HT/PER
                 (UTC) (F)     (DEG/KT/KT) (MB)    (FT/S)
PASCAGOULA       0900   76     360/  5/  5 1011.7
WAVELAND YACHT   0900   77     310/  2/  2 1011.4
GRAND ISLE       0900   81 86   10/  4/  5 1012.4
SOUTHWEST PASS   0900   82 90  290/  2/  3 1012.3
NEW CANAL        0900   80 83     CALM     1012.4
SHELL BEACH      0900   80 81  320/  2/  4 1011.8

OFFSHORE STATIONS

STATION/POSITION TIME  TEMP    WIND        PRES    WAVE
                       AIR SEA DIR/SP/G            HT/PER
                 (UTC) (F)     (DEG/KT/KT) (MB)    (FT/S)
64 S DAUPHIN ISL 0813   82 85  340/  2/  4 1012.4    1/ 5

$$




USA.gov is the U.S. government's official web portal to all federal, state and local government web resources and services.